Terminal Aerodrome Forecast
Issued by NWS Jacksonville, FL

Home | Current Version | Previous Version | Text Only | Print | Product List | Glossary On
Versions: 1 2 3 4 5 6 7 8 9 10 11 12 13 14 15 16 17 18 19 20 21 22 23 24 25 26 27 28 29 30 31 32 33 34 35 36 37
000
FTUS42 KJAX 040012 AAA
TAFSSI
TAF AMD
KSSI 040012Z 0400/0424 VRB03KT P6SM SCT025 BKN250
      TEMPO 0400/0402 4SM -SHRA BKN025
     FM040200 VRB03KT P6SM SCT100 BKN250
     FM040700 VRB02KT 4SM BR SCT250
     FM041300 31005KT P6SM SCT030 BKN250
     FM041700 08007KT P6SM SCT040 BKN250
     FM042000 11009KT P6SM VCTS BKN040CB BKN250=

USA.gov is the U.S. government's official web portal to all federal, state and local government web resources and services.